Date,TemperatureHighF,TemperatureAvgF,TemperatureLowF,DewpointHighF,DewpointAvgF,DewpointLowF,HumidityHigh,HumidityAvg,HumidityLow,PressureMaxIn,PressureMinIn,WindSpeedMaxMPH,WindSpeedAvgMPH,GustSpeedMaxMPH,PrecipitationSumIn
2013-8-1,90.8,80.8,70.3,75.0,70.5,64.7,93,73,47,30.02,29.87,13,3,13,0.00
2013-8-2,94.7,84.2,76.1,79.2,74.7,70.1,87,74,59,29.89,29.75,19,5,19,0.00
2013-8-3,87.1,82.0,77.7,76.7,72.6,69.7,84,74,61,29.97,29.79,28,7,28,0.00
2013-8-4,89.0,81.7,76.4,80.2,75.4,71.8,91,82,68,30.00,29.87,16,5,16,0.00
2013-8-5,97.9,84.9,75.7,77.9,74.6,72.4,91,73,50,29.90,29.73,21,6,22,0.00
2013-8-6,91.1,82.4,75.8,74.1,70.0,68.0,80,67,57,29.78,29.75,21,4,21,0.00
2013-8-7,94.8,86.0,77.7,78.9,73.7,69.4,83,68,53,29.80,29.72,16,4,17,0.00
2013-8-8,84.2,78.2,71.1,76.7,73.0,68.2,92,84,73,29.87,29.75,12,0,12,0.43
2013-8-9,84.8,76.6,69.5,75.1,71.6,67.1,95,85,69,29.99,29.81,13,2,13,0.80
2013-8-10,84.7,75.1,67.4,72.8,69.1,64.3,93,82,65,30.06,29.96,13,3,13,0.04
2013-8-11,90.6,79.1,70.7,76.5,72.0,68.2,94,80,57,30.03,29.93,11,1,12,0.00
2013-8-12,84.7,77.2,72.5,76.9,73.5,69.6,94,89,73,30.03,29.87,19,2,19,0.00
2013-8-13,81.0,73.0,68.6,74.9,70.1,66.1,96,91,77,30.00,29.89,17,2,21,0.00
2013-8-14,69.9,69.2,67.9,67.6,67.0,65.5,93,93,92,30.00,29.98,6,0,6,0.00
2013-8-15,83.3,71.6,63.3,68.0,63.5,59.9,91,77,54,30.05,29.93,9,3,19,0.20
2013-8-16,80.4,71.1,63.6,67.6,64.7,61.8,95,81,61,30.05,29.90,11,2,16,0.55
2013-8-17,79.4,70.7,62.3,66.1,63.1,60.2,95,79,53,30.09,29.99,9,2,14,0.00
2013-8-18,84.7,73.1,61.0,69.4,64.2,59.0,94,76,52,30.08,29.97,11,1,11,0.01
2013-8-19,76.3,67.4,64.7,69.6,64.3,62.2,93,90,77,30.05,29.99,13,1,13,0.00
2013-8-20,90.1,77.5,66.9,72.5,67.1,62.2,90,72,47,30.01,29.92,9,3,15,0.00
2013-8-21,92.5,79.8,66.2,74.8,68.1,63.5,93,70,42,30.02,29.94,9,3,15,0.00
2013-8-22,91.9,80.0,67.8,74.5,70.2,65.3,94,74,51,30.03,29.91,13,2,13,0.00
2013-8-23,88.3,79.6,74.4,76.5,71.2,67.8,87,76,65,29.99,29.89,13,3,13,0.13
2013-8-24,91.7,81.0,71.3,77.2,72.0,68.4,92,75,52,30.05,29.94,14,3,14,0.00
2013-8-25,92.3,82.3,72.7,76.8,72.8,69.2,91,74,53,30.12,30.02,13,3,13,0.00
2013-8-26,91.8,81.7,71.7,75.9,71.4,66.6,90,72,52,30.12,30.00,15,3,16,0.00
2013-8-27,91.0,80.1,70.3,74.0,69.5,64.2,86,71,54,30.05,29.94,17,4,17,0.00
2013-8-28,93.3,81.5,70.9,75.6,71.5,67.9,92,74,52,30.01,29.93,21,4,21,0.00
2013-8-29,97.4,84.7,73.4,77.3,72.1,70.1,91,68,43,29.99,29.89,15,2,15,0.00
2013-8-30,98.5,85.6,74.8,77.1,71.6,68.1,85,65,41,29.93,29.78,15,3,15,0.00
2013-8-31,99.8,87.3,76.9,78.3,71.5,66.9,72,61,42,29.82,29.70,16,4,16,0.00